Погода в Колывани

Погода в Колывани : погода сейчас, прогноз погоды и архив. Всё, что Вы хотите узнать о погоде в Колывани!

Хотите узнать прогноз погоды в Колывани? Тогда Вам сюда: Погода в Колывани

Поиск расширенной информации на нашем сайте:

Другие новости

Новости СМИ2

Главная страница сайта

Новости сайта

03.07.2017

Напоминаем, что на нашем специализированном сайте Метеоцентр.Азия вы можете получить высокодетализированные автоматические прогнозы погоды по пунктам России, СНГ и мира в авиационном формате (включающие направление и скорость ветра, видимость, явления погоды, количество и форму облачности, нижнюю и верхнюю границу облачности).


Погода в Колывани - сегодня

Время (UTC), дата Ветер
(°,м/с) 
Видим.   Явления Облачность Т
(°С)
Тd
(°С)
f(%) Тe
(°С)
Pmin
(гПа)
dP
(гПа)
Po
(мм)
O2
(г/м3)
Тmin Tmax R s Состояние
почвы
09 18.04.18 250 (З) 20000 м    8/8 1000 м 
[Sc diur, vesp]
+1.9 -12.7 33 +1  1022  -0.4  753  302           
12 18.04.18 320 (СЗ) 20000 м    8/8 1000 м 
[Sc]
+0.3 -13.4 35 +1  1021.6  -0.5  752  304    +2       
15 18.04.18 тихо ()   20000 м    9/8 1000 м средняя 
[Sc|Ac trans]
-1.5 -10.1 52 -2  1022.5  0.7  753  306           
18 18.04.18 250 (З) 20000 м    3/0 средняя, верхняя 
[Ac trans|Ci fib]
-4.6 -10 66 -4  1022.8  753  310           
21 18.04.18 200 (Ю) 20000 м    3/0 верхняя 
[Ci fib]
-5 -9.5 71 -5  1022.2  -0.5  752  310           
00 19.04.18 150 (ЮВ) 20000 м    10/0 средняя, верхняя 
[Ac trans|Ci fib]
-4.1 -9.7 65 -4  1022.1  -0.1  752  309  -5.8         
03 19.04.18 170 (Ю) 20000 м    6/0 средняя, верхняя 
[Ac trans|Ci fib]
+1.6 -10.5 40 +1  1021  -0.7  752  302           
06 19.04.18 140 (ЮВ) 20000 м    4/4 1000 м 
[Sc]
+4.9 -11.2 30 +4  1019  -1.7  751  298           
09 19.04.18 160 (Ю) 20000 м    8/8 1000 м 
[Sc]
+5.6 -11.5 28 +6  1017.3  -1.6  749  297           
12 19.04.18 190 (Ю) 20000 м    4/0 
[Sc]
+6 -12.1 26 +7  1016.5  -0.8  749  296    +7.1       
15 19.04.18 160 (Ю) 20000 м    8/0 средняя, верхняя 
[Ac trans|Ci fib]
+0.7 -10.7 42 1017.2  0.4  749  302           
18 19.04.18 190 (Ю) 20000 м    6/0 средняя, верхняя 
[Ac trans|Ci fib]
-0.1 -10.4 46 -1  1017.2  -0.1  749  303           
21 19.04.18 250 (З) 20000 м    ясно 
-1.4 -8.2 60 -2  1018.2  750  304           
00 20.04.18 190 (Ю) 20000 м    3/3 1000 м верхняя 
[Sc|Ci fib]
-2.8 -7.2 72 -4  1019.8  1.3  751  306  -2.9         
03 20.04.18 220 (ЮЗ) 20000 м    5/0 верхняя 
[Ci fib]
+2.9 -7.6 46 1020  0.7  751  300           
12 20.04.18 200 (Ю) 7-11{13}  20000 м    4/0 верхняя 
[Ci fib]
+8.6 -10.3 25 +6  1016.3  -1.4  749  293    +9.2       
15 20.04.18 180 (Ю) 5{13}  20000 м    3/0 верхняя 
[Ci fib]
+5.8 -7.3 38 +4  1015.7  -0.8  748  296           
18 20.04.18 180 (Ю) 6-11{11}  20000 м    ясно 
+5.6 -5.4 45 +3  1013.8  -1.9  747  295           
00 21.04.18 180 (Ю) 5{10}  20000 м  {ливн. осадки}  10/10 600 м кучево-дожд. 
[Cb cap]
+5.5 -2.1 58 +3  1012.6  0.1  746  295  +5.4    0.0     
03 21.04.18 200 (Ю) 6{10}  20000 м    10/10 1000 м 
[Sc]
+7.8 -2 50 +6  1012.6  0.1  746  292           
06 21.04.18 190 (Ю) 5{10}  20000 м    9/8 1000 м верхняя 
[Sc|Ci sp]
+13.4 -0.2 39 +13  1011.9  -0.4  746  286           
12 21.04.18 220 (ЮЗ) 7-12{14}  20000 м    10/10 600 м кучево-дожд. 
[Cb cap]
+12.5 +4.7 59 +11  1011.2  0.9  745  286    +17       
21 21.04.18 170 (Ю) 3{11}  20000 м    4/0 верхняя 
[Ci fib]
+9.2 +0.3 54 +9  1008.2  -2.2  743  289           
00 22.04.18 170 (Ю) 5{11}  20000 м    9/0 верхняя 
[Ci fib]
+8.9 -2.4 45 +7  1006.1  -2.1  741  290  +8.4       
03 22.04.18 180 (Ю) 6{10}  20000 м    10/8 1000 м средняя 
[Sc|As trans]
+11.2 -2.3 39 +10  1004.9  -1.1  740  287           
Время (UTC), дата Ветер
(°,м/с) 
Видим.   Явления Облачность Т
(°С)
Тd
(°С)
f(%) Тe
(°С)
Pmin
(гПа)
dP
(гПа)
Po
(мм)
O2
(г/м3)
Тmin Tmax R s Состояние
почвы

Для получения пояснительной информации подведите курсор к названию столбца.

ПОГОДА в Колывани - архив

Всё, что Вы хотите узнать о погоде в Колывани - удобно и подробно!

Выберите нужную дату (начиная с 1 января 2015* года) и нажмите кнопку "Найти".
Будут отображены архивные сводки погоды по пункту Колывань, начиная с указанной даты.


Отображать данные в формате CSV (для использования в таблицах Excel)


Внимание! Наш архив погоды предназначен исключительно для личного некоммерческого использования в познавательных целях. Если Вам необходимы официальные справки о состоянии погоды (для производственных, юридических, коммерческих и т.п. целей), обращайтесь в органы Росгидромета.

*Примечание: данная дата относится к архиву по метеостанциям СССР (Россия, СНГ, Балтия).
Архив по метеостанциям Зарубежной Европы и Азии (кроме Китая) хранится 10 дней, по другим регионам земного шара (Китай, Африка, Америка, Австралия, Океания) - 1 день.

Колывань - район местоположения метеостанции


Название, широта, долгота, высота метеостанции:
Колывань 55.3°ш. 82.8°д. 137 м над ур. моря [Российская Федерация]

Дополнительная информация

В oтличие oт бoльшинства пoгoдных сайтoв мы публикуем пoдрoбную метеoинфoрмацию в детальнoм прoфессиoнальнoм фoрмате.

Характеристики температуры и влажнoсти вoздуха измеряются на высoте 2 м в тени вдали oт зданий и деревьев.
Скoрoсть ветра измеряется на высoте 10 м (на урoвне рoста челoвека скoрoсть ветра ниже в 1.5-2 раза). Если метеoстанция нахoдится в гoрoде или в лесу, тo скoрoсть ветра занижена на 2-4 м/с пo сравнению с oткрытым местoм. Скoрoсть ветра над акватoриями крупных рек и oзёр, а также на вершинах хoлмoв на 2-5 м/с выше, чем в oбычных услoвиях.
Атмoсфернoе давление в разных тoчках местнoсти мoжет значительнo oтличаться oт давления на метеoстанции, в зависимoсти oт услoвий рельефа (при пoдъёме на 10 м давление пoнижается примернo на 1 мм рт.ст.).